Date,TemperatureHighF,TemperatureAvgF,TemperatureLowF,DewpointHighF,DewpointAvgF,DewpointLowF,HumidityHigh,HumidityAvg,HumidityLow,PressureMaxIn,PressureMinIn,WindSpeedMaxMPH,WindSpeedAvgMPH,GustSpeedMaxMPH,PrecipitationSumIn
2013-2-1,59.7,47.5,33.6,41.4,33.2,23.6,72,58,41,30.39,30.17,15,4,15,0.00
2013-2-2,66.1,54.9,45.6,50.1,41.6,34.9,83,63,34,30.30,30.15,16,3,16,0.00
2013-2-3,70.0,53.6,38.3,46.5,38.2,30.7,95,61,25,30.30,30.00,10,1,10,0.00
2013-2-4,63.4,57.6,53.3,57.2,48.9,35.9,95,74,49,30.00,29.80,14,3,14,0.00
2013-2-5,63.7,58.6,55.3,59.8,56.7,54.0,98,93,85,30.00,29.87,6,1,6,0.01
2013-2-6,60.2,57.0,54.8,58.6,55.7,53.6,97,95,92,30.03,29.91,11,2,11,0.01
2013-2-7,67.2,59.2,54.0,59.4,56.4,50.0,98,91,76,30.01,29.81,22,4,22,0.00
2013-2-8,64.1,53.8,43.9,50.0,42.1,36.5,88,67,38,30.22,30.01,17,4,17,0.00
2013-2-9,56.7,48.6,43.0,55.2,44.7,39.1,95,87,68,30.16,29.80,19,7,19,0.16
2013-2-10,65.3,59.2,49.1,62.9,45.6,29.9,96,66,27,30.01,29.65,37,4,37,0.33
2013-2-11,53.3,50.1,46.9,46.3,40.2,33.2,90,70,47,30.16,29.99,14,2,14,0.07
2013-2-12,49.6,47.2,44.2,48.1,45.3,42.3,96,93,84,30.06,29.82,16,3,17,0.70
2013-2-13,51.4,43.8,39.7,42.6,38.9,36.2,93,83,64,30.15,29.96,19,4,19,0.00
2013-2-14,65.8,50.0,37.8,45.9,39.4,34.2,96,71,33,30.12,30.01,14,2,14,0.00
2013-2-15,51.4,45.4,35.5,42.7,32.5,21.7,92,63,31,30.36,30.07,15,3,15,0.04
2013-2-16,53.2,42.2,32.4,37.0,29.0,22.0,81,61,37,30.40,30.21,17,2,17,0.00
2013-2-17,68.4,54.7,41.3,44.0,34.9,30.7,72,50,25,30.19,29.94,15,8,31,0.00
2013-2-18,72.7,60.9,52.7,59.0,47.9,34.6,82,64,34,30.07,29.71,18,10,40,0.00
2013-2-19,60.6,52.5,40.4,34.7,30.8,26.1,65,44,27,30.32,30.08,10,3,12,0.00
2013-2-20,52.0,43.5,39.1,39.9,36.3,31.0,88,77,47,30.22,29.86,20,6,20,0.16
2013-2-21,63.9,49.3,41.3,51.0,41.6,34.3,95,76,45,29.91,29.66,22,5,22,0.11
2013-2-22,48.7,41.5,33.5,41.3,32.3,27.4,93,72,48,30.12,29.89,14,3,14,0.00
2013-2-23,58.1,43.7,32.5,35.9,30.7,26.1,77,62,39,30.07,29.93,5,2,11,0.00
2013-2-24,66.5,57.5,39.7,44.5,40.7,32.6,85,55,35,29.97,29.68,20,6,20,0.00
2013-2-25,63.2,53.1,40.1,55.5,40.8,30.4,90,65,31,29.68,29.41,31,8,31,0.00
2013-2-26,56.8,46.2,40.6,37.9,35.3,33.3,84,67,42,29.91,29.56,32,8,32,0.00
2013-2-27,55.9,45.9,36.1,39.1,31.5,22.4,95,61,31,30.18,29.89,23,5,23,0.00
2013-2-28,55.7,44.6,33.2,32.3,28.1,24.4,81,54,33,30.26,30.13,20,6,20,0.00